Idaho Falls, ID

9:25 PM MDT on July 20, 2017 (GMT -0600)
Fanning

Weather History for KIDA - December, 2012

Change the Weather History Date:

Thursday, December 6, 2012

  Actual Average Record
Temperature  
Mean Temperature 37 °F 23 °F  
Max Temperature 41 °F 31 °F 55 °F (1981)
Min Temperature 33 °F 14 °F -16 °F (1972)
Degree Days  
Heating Degree Days 28 42  
Month to date heating degree days 150 248  
Since 1 July heating degree days 1724 2151  
Cooling Degree Days 0 0  
Month to date cooling degree days 0 0  
Year to date cooling degree days 444 264  
Moisture  
Dew Point 33 °F    
Average Humidity 81    
Maximum Humidity 92    
Minimum Humidity 70    
Precipitation  
Precipitation 0.00 in 0.03 in 0.28 in (1953)
Month to date precipitation 0.44 0.19  
Year to date precipitation 6.81 9.71  
Sea Level Pressure  
Sea Level Pressure 30.01 in    
Wind  
Wind Speed 14 mph (SW)    
Max Wind Speed 24 mph    
Max Gust Speed 29 mph    
Visibility 7 miles    
Events Fog    
T = Trace of Precipitation, MM = Missing Value Source: NWS Daily Summary

Daily Weather History Graph

Daily Weather History Graph

Search for Another Location

Airport or City:

Trip Planner

Search our weather history database for the weather conditions in past years. The results will help you decide how hot, cold, wet, or windy it might be!

Date:

Astronomy

Dec. 06, 2012 Rise Set
Actual Time 7:47 AM MST 4:51 PM MST
Civil Twilight 7:14 AM MST 5:24 PM MST
Nautical Twilight 6:38 AM MST 6:00 PM MST
Astronomical Twilight 6:04 AM MST 6:34 PM MST
Moon No Moon Rise 12:31 PM MST (12/6)
Length of Visible Light 10h 09m
Length of Day
9h 04m
Waning Gibbous, 48% of the Moon is Illuminated
Dec 6
Waning Gibbous
Dec 13
New
Dec 19
First Quarter
Dec 28
Full
Jan 4
Last Quarter

Hourly Weather History & Observations

Time (MST) Temp. Windchill Dew Point Humidity Pressure Visibility Wind Dir Wind Speed Gust Speed Precip Events Conditions
12:48 AM 37.4 °F 33.8 °F 33.8 °F 87% 30.05 in 10.0 mi SW 4.6 mph - N/A   Scattered Clouds
12:53 AM 37.0 °F 31.6 °F 34.0 °F 89% 30.06 in 10.0 mi SW 6.9 mph - N/A   Scattered Clouds
1:25 AM 37.4 °F 33.8 °F 33.8 °F 87% 30.05 in 10.0 mi SSW 4.6 mph - N/A   Mostly Cloudy
1:53 AM 37.9 °F 33.5 °F 35.1 °F 89% 30.04 in 10.0 mi SSW 5.8 mph - N/A   Overcast
2:53 AM 37.0 °F 28.9 °F 34.0 °F 89% 30.05 in 7.0 mi SW 12.7 mph - N/A   Overcast
3:26 AM 35.6 °F 26.6 °F 33.8 °F 93% 30.05 in 1.8 mi SW 13.8 mph - N/A   Overcast
3:41 AM 35.6 °F 28.6 °F 33.8 °F 93% 30.05 in 0.8 mi SW 9.2 mph - N/A   Overcast
3:51 AM 35.6 °F 27.5 °F 33.8 °F 93% 30.05 in 2.0 mi SW 11.5 mph - N/A   Overcast
3:52 AM 36.0 °F 28.0 °F 34.0 °F 93% 30.06 in 3.0 mi SW 11.5 mph - N/A   Overcast
4:53 AM 36.0 °F 27.5 °F 33.1 °F 89% 30.04 in 3.0 mi SSW 12.7 mph - N/A   Overcast
4:56 AM 35.6 °F 26.6 °F 33.8 °F 93% 30.03 in 1.5 mi SSW 13.8 mph - N/A   Overcast
5:07 AM 35.6 °F 27.1 °F 33.8 °F 93% 30.03 in 0.5 mi SW 12.7 mph - N/A Fog Fog
5:31 AM 35.6 °F 26.6 °F 33.8 °F 93% 30.03 in 0.2 mi SW 13.8 mph - N/A Fog Fog
5:53 AM 36.0 °F 26.7 °F 34.0 °F 93% 30.04 in 0.5 mi SSW 15.0 mph - N/A Fog Fog
6:53 AM 37.0 °F 29.8 °F 35.1 °F 93% 30.04 in 0.5 mi SW 10.4 mph - N/A Fog Fog
7:15 AM 37.4 °F 28.2 °F 35.6 °F 93% 30.03 in 2.0 mi SW 16.1 mph - N/A   Overcast
7:53 AM 36.0 °F 25.6 °F 34.0 °F 93% 30.05 in 1.0 mi SW 18.4 mph 26.5 mph N/A   Overcast
8:00 AM 35.6 °F 24.8 °F 33.8 °F 93% 30.03 in 2.0 mi SW 19.6 mph 25.3 mph N/A   Overcast
8:53 AM 35.1 °F 27.9 °F 34.0 °F 96% 30.06 in 1.0 mi WSW 9.2 mph - N/A   Overcast
9:32 AM 35.6 °F 28.0 °F 33.8 °F 93% 30.03 in 5.0 mi SW 10.4 mph - N/A   Overcast
9:53 AM 37.0 °F 28.5 °F 35.1 °F 93% 30.06 in 5.0 mi SW 13.8 mph - N/A   Overcast
10:34 AM 37.4 °F 29.3 °F 35.6 °F 93% 30.03 in 10.0 mi SW 12.7 mph - N/A   Overcast
10:53 AM 37.9 °F 29.2 °F 35.1 °F 89% 30.05 in 10.0 mi SW 15.0 mph - N/A   Overcast
11:53 AM 39.0 °F 30.6 °F 35.1 °F 86% 30.03 in 10.0 mi SSW 15.0 mph - N/A   Overcast
12:41 PM 39.2 °F 31.6 °F 35.6 °F 87% 29.98 in 10.0 mi SSW 12.7 mph - N/A   Overcast
12:53 PM 39.9 °F 32.9 °F 35.1 °F 83% 30.00 in 10.0 mi SSW 11.5 mph - N/A   Overcast
1:17 PM 39.2 °F 31.6 °F 35.6 °F 87% 29.97 in 10.0 mi SSW 12.7 mph - N/A   Overcast
1:53 PM 41.0 °F - 36.0 °F 82% 29.97 in 10.0 mi North - - N/A   Overcast
2:45 PM 41.0 °F 34.3 °F 35.6 °F 81% 29.93 in 10.0 mi SW 11.5 mph - N/A   Scattered Clouds
2:53 PM 41.0 °F 33.1 °F 35.1 °F 79% 29.95 in 10.0 mi SW 15.0 mph - N/A   Scattered Clouds
3:53 PM 39.9 °F 32.5 °F 33.1 °F 77% 29.95 in 10.0 mi SW 12.7 mph - N/A   Mostly Cloudy
4:53 PM 39.9 °F 32.1 °F 30.9 °F 70% 29.95 in 10.0 mi SSW 13.8 mph - N/A   Mostly Cloudy
5:53 PM 39.0 °F 29.6 °F 30.9 °F 73% 29.94 in 10.0 mi SSW 18.4 mph - N/A   Mostly Cloudy
6:53 PM 37.9 °F 27.9 °F 30.9 °F 76% 29.93 in 10.0 mi SSW 19.6 mph 28.8 mph N/A   Mostly Cloudy
7:53 PM 36.0 °F 26.3 °F 30.0 °F 79% 29.96 in 10.0 mi SW 16.1 mph - N/A   Partly Cloudy
8:53 PM 36.0 °F 25.3 °F 30.0 °F 79% 29.97 in 10.0 mi SSW 19.6 mph - N/A   Overcast
9:10 PM 35.6 °F 24.8 °F 30.2 °F 81% 29.94 in 10.0 mi SW 19.6 mph 26.5 mph N/A   Overcast
9:37 PM 35.6 °F 26.6 °F 30.2 °F 81% 29.95 in 10.0 mi SSW 13.8 mph - N/A   Overcast
9:53 PM 35.1 °F 25.2 °F 30.9 °F 85% 29.99 in 10.0 mi SSW 16.1 mph - N/A   Overcast
10:15 PM 35.6 °F 25.2 °F 30.2 °F 81% 29.95 in 10.0 mi SSW 18.4 mph - N/A   Overcast
10:53 PM 34.0 °F 23.8 °F 28.9 °F 82% 30.00 in 10.0 mi SSW 16.1 mph - N/A   Overcast
11:53 PM 33.1 °F 21.9 °F 28.0 °F 82% 30.01 in 10.0 mi SSW 18.4 mph - N/A   Overcast